Location: De Greiden
(52.9496°N, 5.9137°E)
Time: 00:27:15
(UTC+00:00)

USA 229 - Pass Details

Date: 24 January 2021
Orbit: 964 x 1248 km, 63.4° (Epoch: 26 February)

Event Time Altitude Azimuth Distance (km) Brightness Sun altitude
Rises 16:39:20 0° 306° (NW) 3,869 7.1 -5.2°
Reaches altitude 10° 16:42:01 10° 312° (NW) 2,953 6.4 -5.6°
Maximum altitude 16:48:54 52° 28° (NNE) 1,405 4.1 -6.5°
Drops below altitude 10° 16:56:14 10° 104° (ESE) 3,140 5.7 -7.5°
Sets 16:59:10 0° 109° (ESE) 4,132 6.3 -8.0°
